This is the latest recevied weather packets stored in our database for station/object WX4FUN-13. If no packets are shown the sender has not sent any weather packets the latest 10 day(s).
| Time | Temp. | Humidity | Pressure | Rain* | Wind** | Luminosity | Snow |
|---|---|---|---|---|---|---|---|
| 1777131945 | 11.67° C | 50% | 1019 hPa | 0 mm | - | 411 W/m² | - |
| 1777131343 | 11.11° C | 53% | 1019 hPa | 0 mm | - | 374 W/m² | - |
| 1777130741 | 10.56° C | 54% | 1019 hPa | 0 mm | - | 487 W/m² | - |
| 1777130140 | 10.56° C | 52% | 1019 hPa | 0 mm | - | 570 W/m² | - |
| 1777129537 | 11.67° C | 52% | 1019.2 hPa | 0 mm | - | 313 W/m² | - |
| 1777128937 | 10.56° C | 55% | 1019.2 hPa | 0 mm | - | 385 W/m² | - |
| 1777128334 | 10.56° C | 58% | 1019.3 hPa | 0 mm | - | 333 W/m² | - |
| 1777127735 | 10.56° C | 55% | 1019.4 hPa | 0 mm | - | 402 W/m² | - |
| 1777127134 | 10° C | 57% | 1019.3 hPa | 0 mm | - | 316 W/m² | - |
| 1777126534 | 10° C | 59% | 1019.3 hPa | 0 mm | - | 277 W/m² | - |
| 1777125934 | 9.44° C | 60% | 1019.4 hPa | 0 mm | - | 373 W/m² | - |
| 1777125332 | 9.44° C | 58% | 1019.4 hPa | 0 mm | - | 232 W/m² | - |
| 1777124733 | 9.44° C | 60% | 1019.2 hPa | 0 mm | - | 220 W/m² | - |
| 1777124132 | 9.44° C | 62% | 1019.3 hPa | 0 mm | - | 359 W/m² | - |
| 1777123529 | 8.89° C | 62% | 1019.3 hPa | 0 mm | - | 449 W/m² | - |
| 1777122931 | 8.89° C | 64% | 1019.2 hPa | 0 mm | - | 215 W/m² | - |
| 1777122331 | 8.33° C | 66% | 1019.2 hPa | 0 mm | - | 175 W/m² | - |
| 1777121730 | 8.33° C | 67% | 1019.4 hPa | 0 mm | - | 476 W/m² | - |
| 1777121129 | 8.33° C | 67% | 1019.2 hPa | 0 mm | - | 162 W/m² | - |
| 1777120527 | 8.33° C | 67% | 1019.3 hPa | 0 mm | - | 211 W/m² | - |
| 1777119927 | 8.33° C | 65% | 1019.4 hPa | 0 mm | - | 369 W/m² | - |
| 1777119326 | 8.33° C | 68% | 1019.3 hPa | 0 mm | - | 341 W/m² | - |
| 1777118726 | 7.78° C | 69% | 1019.4 hPa | 0 mm | - | 211 W/m² | - |
| 1777118128 | 6.67° C | 72% | 1019.5 hPa | 0 mm | - | 271 W/m² | - |
| 1777117526 | 5.56° C | 77% | 1019.3 hPa | 0 mm | - | 225 W/m² | - |
* Rain latest hour (hover to see other rain measurements)
** Current wind speed in m/s (hover to see current wind gust speed)